GW4746 Weather Reports


Display with metric or nautical units.
time (UTC)temp
F
wind
direction
speed
MPH
gust
MPH
rain 1hr
in
rain 24hr
in
rain mn
in
humidity
%
barometer
mb
20260502163025 68 288 2.0 6.0 0.00 0.12 0.00 50 1023.9
20260502161522 67 302 2.0 6.0 0.00 0.12 0.00 50 1023.9
20260502151524 63 347 2.0 5.0 0.00 0.12 0.00 59 1024.0
20260502123013 47 58 0.0 0.0 0.00 0.12 0.00 95 1022.5
20260502121516 45 58 0.0 0.0 0.00 0.12 0.00 94 1022.3
20260502114503 46 58 0.0 0.0 0.00 0.12 0.00 94 1022.1
20260502113010 46 58 0.0 0.0 0.00 0.12 0.00 94 1022.0
20260502111514 46 58 0.0 0.0 0.00 0.12 0.00 94 1021.7
20260502110018 46 58 0.0 0.0 0.00 0.12 0.00 94 1021.6
20260502104526 46 58 0.0 0.0 0.00 0.13 0.00 93 1021.7
20260502103013 47 58 0.0 0.0 0.00 0.15 0.00 93 1021.5
20260502101511 47 58 0.0 0.0 0.00 0.15 0.00 93 1021.3
20260502091528 47 58 0.0 0.0 0.00 0.19 0.00 93 1020.9
20260502071520 50 58 0.0 0.0 0.00 0.24 0.00 90 1021.3
20260502070006 51 58 0.0 0.0 0.00 0.24 0.00 89 1021.4
20260502064509 51 58 0.0 0.0 0.00 0.24 0.00 89 1021.4
20260502063019 51 58 0.0 0.0 0.00 0.25 0.00 87 1021.2
20260502061519 52 58 0.0 0.0 0.00 0.25 0.00 87 1021.1
20260502060036 53 58 0.0 0.0 0.00 0.25 0.00 88 1021.1
20260502054506 53 58 0.0 0.0 0.00 0.25 0.00 88 1020.9
20260502053011 53 58 0.0 0.0 0.00 0.25 0.00 87 1020.8
20260502051515 53 58 0.0 0.0 0.00 0.25 0.00 85 1020.7
20260502050022 53 58 0.0 0.0 0.00 0.25 0.00 85 1020.6
20260502044522 53 58 0.0 0.0 0.00 0.25 0.25 84 1020.4
20260502043023 53 58 0.0 0.0 0.00 0.25 0.25 83 1020.4
20260502041543 54 58 0.0 0.0 0.00 0.26 0.25 80 1020.5
20260502040046 54 58 0.0 0.0 0.00 0.26 0.25 81 1020.5
20260502034528 54 58 0.0 0.0 0.00 0.26 0.25 81 1020.2
20260502033030 54 58 0.0 0.0 0.00 0.26 0.25 79 1020.5
20260502031510 55 58 0.0 0.0 0.00 0.26 0.25 78 1020.3
20260502030014 55 58 0.0 0.0 0.00 0.26 0.25 79 1020.1
20260502024517 55 58 0.0 0.0 0.00 0.26 0.25 76 1020.2
20260502023029 56 58 0.0 0.0 0.00 0.26 0.25 72 1019.8
20260502021524 57 58 0.0 0.0 0.00 0.26 0.25 70 1019.4
20260502020010 57 58 0.0 0.0 0.00 0.26 0.25 68 1019.3
20260502014511 58 58 0.0 0.0 0.00 0.26 0.25 67 1019.1
20260502013019 58 118 0.0 0.0 0.00 0.26 0.25 65 1018.8
20260502011525 58 107 0.0 2.0 0.00 0.27 0.25 65 1018.4
20260502010005 59 75 0.0 2.0 0.00 0.27 0.25 63 1018.5
20260502004510 60 82 1.0 3.0 0.00 0.27 0.25 60 1018.3
20260502003002 60 122 2.0 4.0 0.00 0.27 0.25 60 1017.9
20260502001502 60 93 1.0 3.0 0.00 0.27 0.25 58 1017.8
20260502000005 60 84 1.0 5.0 0.00 0.27 0.25 57 1017.5
20260501234513 61 41 2.0 5.0 0.00 0.27 0.25 58 1017.5
20260501233014 62 51 3.0 8.0 0.00 0.27 0.25 56 1017.1
20260501231520 62 104 3.0 6.0 0.00 0.27 0.25 56 1017.0
20260501230007 61 14 3.0 10.0 0.00 0.27 0.25 62 1016.7
20260501224508 61 68 2.0 5.0 0.00 0.27 0.25 62 1016.7
20260501223015 60 115 3.0 6.0 0.00 0.27 0.25 62 1016.6
20260501221514 60 115 3.0 8.0 0.00 0.27 0.25 64 1016.1
20260501220019 59 88 3.0 7.0 0.00 0.27 0.25 73 1015.8
20260501214523 59 101 2.0 6.0 0.00 0.27 0.25 75 1016.0
20260501213006 58 91 2.0 4.0 0.00 0.27 0.25 77 1016.3
20260501211510 58 57 1.0 4.0 0.00 0.27 0.25 78 1016.5
20260501210015 58 94 2.0 5.0 0.00 0.27 0.25 79 1016.6
20260501204520 58 111 2.0 5.0 0.00 0.27 0.25 78 1017.0
20260501203018 58 94 1.0 3.0 0.00 0.27 0.25 77 1017.3
20260501201509 59 360 0.0 4.0 0.00 0.27 0.25 78 1017.5
20260501200012 58 82 1.0 7.0 0.00 0.27 0.25 81 1017.5
20260501194517 58 117 1.0 4.0 0.00 0.27 0.25 83 1017.6
20260501193026 57 77 2.0 4.0 0.00 0.27 0.25 83 1017.5
20260501191505 56 43 1.0 4.0 0.01 0.27 0.25 84 1017.8
20260501190010 56 95 1.0 3.0 0.02 0.27 0.25 86 1018.1
20260501184514 56 86 1.0 3.0 0.05 0.27 0.25 88 1018.5
20260501183018 55 80 0.0 2.0 0.11 0.27 0.25 88 1018.7
20260501181530 55 84 0.0 5.0 0.11 0.26 0.24 88 1018.9
20260501180008 55 341 0.0 1.0 0.10 0.25 0.23 89 1019.0
20260501174511 55 117 0.0 2.0 0.07 0.22 0.20 85 1019.0
20260501173024 56 328 0.0 3.0 0.01 0.16 0.14 80 1019.2
20260501171525 56 75 1.0 6.0 0.00 0.15 0.13 78 1018.6